Cloud_Cover
4 5 5 5 4 5 56 93 6 23 64 98 100 86 100 100 100 100 100 99 5 3 17 5 9 5 5 1 0 5 0 0 1 0 0 0 0 0 0 1 15 74 96 100 29 5 0 4 0
5 3 4 3 13 84 19 86 6 7 9 7 100 85 100 100 100 100 100 43 1 46 30 5 5 5 5 5 5 5 3 4 3 0 0 0 0 0 0 0 0 0 0 10 29 8 0 0 0
0 3 0 3 77 42 71 6 98 67 46 5 96 95 100 100 100 100 100 92 5 84 90 91 40 64 24 8 5 5 5 5 5 0 0 0 0 0 0 0 0 0 0 0 0 0 4 0 7
5 2 0 3 96 17 13 5 5 66 100 99 91 100 100 99 100 100 100 100 100 100 100 100 100 100 100 29 13 30 5 5 0 0 1 0 0 0 0 0 1 0 0 0 0 0 0 0 0
6 5 0 10 68 20 34 10 47 5 16 98 98 99 100 86 91 100 100 100 100 100 100 100 100 100 88 95 75 5 3 8 10 0 1 2 50 39 10 60 48 40 27 4 0 0 0 0 0
21 42 52 0 13 80 76 7 6 5 48 100 98 98 100 98 10 32 100 100 100 100 100 100 100 100 100 100 30 12 9 22 19 17 10 28 38 87 100 100 100 100 88 9 0 0 0 0 0
100 98 100 35 21 15 58 100 54 0 1 8 21 53 93 100 100 100 100 100 100 100 100 100 100 100 100 82 7 80 96 36 24 93 60 10 64 48 8 4 0 0 0 0 0 0 0 0 0
100 100 100 100 98 22 98 91 33 5 5 5 5 0 0 40 38 97 100 100 100 100 100 100 100 100 59 53 17 16 5 5 5 5 5 5 5 5 0 0 0 0 0 0 0 0 0 0 0
100 100 100 100 100 78 26 16 5 5 5 7 5 5 4 0 0 1 16 45 100 100 100 100 98 70 29 5 53 22 41 5 5 5 12 5 5 2 0 0 0 0 0 0 0 0 0 0 0
96 100 100 92 100 100 97 100 5 5 1 21 25 5 5 5 2 0 0 89 20 5 2 5 41 5 5 5 6 5 6 5 6 11 6 5 5 0 0 0 0 0 3 1 0 0 0 0 0
20 100 100 97 100 100 100 100 100 16 5 3 5 5 6 77 5 5 5 84 6 5 11 7 22 20 19 5 25 65 13 23 25 7 5 5 2 0 0 0 0 4 2 0 5 0 0 0 5
5 77 99 100 100 100 100 100 100 29 5 5 5 5 5 5 37 5 5 85 91 85 97 96 97 44 26 15 37 95 100 40 71 7 4 0 0 5 6 21 10 5 5 0 0 0 2 5 5
21 5 98 99 100 100 100 100 100 50 5 5 7 5 5 3 5 5 5 17 19 68 6 10 22 70 58 40 61 94 91 57 42 6 6 5 29 81 100 47 14 5 4 5 2 5 5 5 18
5 5 86 100 100 100 100 100 100 99 100 96 70 6 50 7 5 4 5 5 2 0 3 6 91 16 2 0 4 5 5 6 33 64 92 100 100 53 5 5 5 5 5 5 5 5 46 83 100
27 88 90 100 100 100 100 100 100 100 94 98 100 100 95 91 72 10 5 5 38 5 1 5 10 5 6 7 5 11 96 32 98 100 100 18 9 6 5 5 5 5 5 5 8 57 96 100 100
55 83 97 100 100 100 100 100 100 100 100 94 100 99 99 100 100 95 22 97 70 57 10 8 65 93 97 50 97 100 100 100 93 10 58 59 31 34 16 5 5 5 51 100 100 100 92 5 10
38 69 98 100 100 100 100 100 100 100 100 100 100 100 100 100 100 88 99 100 98 100 100 98 100 100 100 100 100 100 100 100 100 66 40 58 82 56 6 65 86 100 100 100 100 100 97 99 100
70 19 52 36 92 100 100 100 100 100 100 100 100 100 100 100 100 100 100 57 70 88 100 100 100 100 100 100 100 100 100 100 86 96 99 100 99 94 100 100 100 100 100 100 100 100 100 100 44
5 4 5 5 5 62 100 100 100 100 100 100 100 100 100 100 94 100 97 100 100 100 100 100 100 100 100 100 100 100 100 100 100 100 100 100 100 100 100 100 100 100 100 100 100 100 100 97 21
5 0 0 2 5 5 58 100 100 100 100 100 95 100 100 77 94 100 100 77 96 96 100 100 100 100 100 100 100 100 100 100 100 100 100 100 100 100 100 100 100 100 100 100 87 8 5 5 4
0 0 0 5 12 75 11 78 100 100 100 100 100 100 100 85 74 96 100 100 100 86 100 100 100 100 100 100 100 100 100 100 100 100 100 100 100 100 100 100 100 69 8 5 7 4 2 0 0
0 46 6 6 47 3 2 5 100 42 81 100 100 100 100 100 100 100 100 100 100 69 27 10 100 100 100 100 100 100 100 100 100 100 100 100 100 100 100 100 86 52 2 0 0 0 0 0 0
5 0 2 53 5 1 0 0 4 0 1 54 98 100 100 100 9 95 98 98 82 72 99 100 100 100 100 100 100 100 100 100 100 100 100 99 88 28 5 4 0 0 0 0 0 0 0 0 0
38 5 37 34 67 3 0 0 0 0 0 34 100 98 72 37 78 100 100 100 100 100 100 100 100 100 100 100 100 90 73 52 15 1 0 0 0 0 0 0 0 0 0 0 1 2 1 0 0
99 28 25 12 15 0 0 0 0 0 0 0 78 100 100 100 70 6 40 93 94 90 85 80 32 4 3 5 5 5 3 0 0 0 0 0 0 0 0 2 2 3 5 4 0 1 3 5 5
100 99 94 65 4 0 0 0 0 0 0 2 4 4 17 7 3 4 0 0 0 0 0 0 0 0 0 0 0 0 0 0 0 0 0 0 0 0 0 0 0 0 0 0 0 0 0 0 0
92 6 26 39 12 4 1 0 0 0 1 11 6 7 26 91 80 5 0 0 0 0 0 0 0 0 0 0 0 0 0 0 0 0 0 0 0 0 0 0 0 0 0 0 0 0 0 0 0
100 100 99 56 34 5 25 0 0 1 15 11 8 36 97 33 22 28 15 5 0 0 0 0 0 0 0 0 0 0 0 0 0 0 0 0 0 0 0 0 0 0 0 0 0 0 2 3 6
100 84 11 15 5 67 23 4 30 30 74 100 100 100 100 100 100 98 54 5 0 1 1 0 0 0 0 0 0 0 0 0 0 0 0 0 0 0 0 0 0 0 2 5 5 54 55 46 19
57 34 14 3 90 100 89 46 99 100 100 100 100 100 100 100 100 97 7 5 5 1 0 0 0 0 0 0 0 0 0 0 0 0 0 0 0 0 0 0 0 4 5 15 6 79 99 38 50